Wind_Speed
10 9 9 8 9 8 8 8 8 8 8 8 9 10 11 11 12 13 14 15 16 16 17 18 19 20 20 20 20 20 21 21 21 21 22 22 23 23 23 23 24 26 27
10 10 10 9 9 8 8 9 9 9 8 9 10 11 12 12 13 14 15 16 17 18 18 19 19 20 20 20 21 21 22 22 22 23 23 24 24 25 25 25 26 27 27
10 11 11 11 10 10 9 10 9 10 10 10 10 11 12 13 14 14 15 16 17 18 19 20 19 20 19 20 21 21 22 23 23 23 24 25 26 26 27 27 27 27 27
11 11 12 12 11 11 10 10 10 10 10 11 11 12 13 14 15 15 15 16 17 18 19 18 19 20 20 20 21 21 22 23 24 24 25 26 26 27 28 28 28 28 29
11 12 12 12 11 11 11 11 10 11 11 12 12 12 13 14 15 15 16 17 18 18 19 19 20 20 21 22 22 22 23 23 24 25 26 26 27 28 29 29 29 29 30
13 12 13 12 12 12 12 12 12 12 12 13 13 13 14 15 15 16 17 18 19 19 20 20 20 21 22 23 23 23 23 23 24 25 26 27 27 29 29 30 30 30 31
13 13 13 13 13 13 13 13 13 13 14 13 14 14 15 15 17 17 18 18 19 19 20 20 21 21 22 22 23 23 23 23 24 25 26 27 28 28 29 30 30 30 30
14 14 14 14 14 14 14 14 14 14 14 14 15 16 16 17 17 17 18 18 18 19 20 20 20 20 21 21 21 22 23 23 24 24 25 26 26 27 28 29 30 30 31
15 16 15 15 15 14 15 15 15 15 15 15 16 17 17 18 17 17 18 19 19 20 20 20 20 21 21 21 21 22 23 23 23 24 25 25 27 28 28 28 29 29 30
16 16 16 16 16 16 16 16 16 16 16 17 17 17 18 18 18 18 18 19 19 20 20 20 21 21 21 21 22 22 23 23 24 25 25 26 27 27 28 28 29 30 31
17 18 18 17 16 17 17 17 17 18 18 18 18 18 18 19 18 18 19 20 20 21 21 21 21 22 22 22 22 23 23 24 25 25 27 27 27 28 28 29 30 30 31
19 19 18 18 18 18 18 18 18 19 19 19 19 19 19 19 19 20 20 21 21 21 21 21 21 22 22 23 23 24 24 25 26 27 28 28 28 28 29 29 30 31 31
20 20 20 20 20 20 19 19 19 20 20 20 19 19 19 19 20 21 21 22 22 22 22 22 22 23 24 24 24 25 26 26 27 28 28 28 29 29 30 29 29 30 30
21 21 21 21 21 21 21 21 20 20 20 20 20 20 20 21 21 22 22 23 23 23 23 23 23 24 25 25 25 26 27 28 28 29 29 30 30 30 30 29 29 30 30
21 22 22 22 22 22 22 21 21 21 22 22 22 22 22 22 23 23 23 23 23 23 23 24 24 25 25 26 26 27 28 29 29 29 30 30 30 30 30 29 29 29 29
22 22 22 22 23 23 22 22 22 23 23 23 24 24 23 23 23 24 24 24 24 24 24 25 25 25 26 27 28 28 29 29 29 29 29 29 29 29 29 29 29 29 29
24 24 24 24 24 24 23 23 24 24 25 25 24 24 24 24 24 25 25 25 25 25 25 25 25 26 27 27 28 29 29 29 29 29 29 29 29 29 29 29 28 28 28
24 24 24 24 24 24 24 24 25 25 25 25 25 25 25 25 25 25 25 25 26 26 26 26 26 27 27 28 29 29 29 29 29 29 29 29 28 28 28 28 28 27 27
25 25 25 25 25 25 25 25 26 26 26 26 26 26 26 26 25 25 26 26 26 26 26 27 27 28 29 29 29 30 29 29 29 29 29 28 29 28 28 28 27 27 27
26 26 26 26 26 26 26 26 27 26 26 26 26 27 26 26 26 26 27 27 27 27 27 27 28 29 29 29 30 30 29 28 28 29 29 28 29 29 28 28 27 27 26
27 27 27 27 27 27 27 27 27 27 27 27 27 27 27 27 27 27 27 27 27 27 28 28 29 29 29 29 30 29 28 28 28 29 29 29 28 28 27 27 27 26 26
28 27 27 27 28 27 27 27 27 27 27 27 27 27 27 27 27 27 27 28 28 28 28 29 29 30 30 30 29 29 29 29 29 29 28 28 28 27 26 26 26 26 25
27 27 27 28 28 27 27 27 27 27 27 27 27 27 26 27 27 28 28 27 27 28 29 29 29 30 30 29 29 29 29 28 28 28 28 27 27 27 26 26 25 24 24
28 28 28 28 27 27 27 27 27 27 26 26 27 27 26 27 27 27 27 27 27 28 29 29 29 30 29 29 29 29 29 28 28 27 27 27 26 26 26 25 24 24 24
28 27 27 27 28 27 27 26 26 26 26 26 26 26 26 25 25 26 26 27 28 28 29 29 29 29 29 29 28 28 28 27 27 27 27 26 25 25 25 25 24 24 23
27 26 26 27 27 26 26 25 25 24 24 24 25 25 25 25 26 26 27 28 28 28 29 29 29 29 29 28 28 27 27 27 26 26 26 26 25 25 25 24 24 24 23
Wind_Direction
351 345 341 338 336 335 335 330 324 312 307 302 302 301 301 301 299 295 293 292 292 291 291 291 290 288 286 282 280 280 279 278 278 278 280 280 278 278 277 276 276 277 278
350 344 341 340 338 335 332 329 326 318 310 305 302 303 303 301 298 296 294 293 292 292 293 292 291 289 287 284 281 280 280 281 281 278 279 280 280 279 279 278 277 278 278
349 344 340 338 334 331 326 325 323 321 317 309 305 304 304 303 301 300 299 299 299 297 295 292 292 291 289 288 287 285 284 285 285 281 279 280 281 279 280 280 278 279 280
342 341 338 338 338 336 331 328 326 324 322 316 310 306 306 304 302 302 304 303 301 299 297 297 296 295 294 293 292 289 289 287 285 283 282 282 282 281 282 281 281 280 280
337 337 336 335 335 333 330 327 324 323 320 318 317 313 309 306 307 305 304 304 303 301 300 299 299 299 298 296 294 291 290 288 287 286 285 284 283 282 282 281 281 282 282
328 330 332 336 335 333 331 326 323 321 319 318 316 316 312 309 309 309 308 306 304 302 301 300 300 300 300 298 296 294 293 292 290 288 287 286 285 283 282 281 281 281 281
325 326 328 330 330 329 327 324 322 320 319 319 317 316 315 312 311 311 311 309 307 306 305 303 302 301 302 302 299 297 297 296 294 292 290 288 287 284 283 282 281 280 281
320 322 324 326 326 326 325 323 320 319 318 317 316 315 315 314 313 314 313 311 310 309 309 307 305 305 303 303 302 301 301 300 298 295 294 292 291 288 286 285 284 282 282
316 317 318 319 320 321 323 322 320 319 319 318 316 316 316 315 314 313 311 308 309 310 310 311 309 308 305 304 303 302 302 301 300 300 299 298 296 292 290 288 285 286 285
310 312 312 312 314 315 317 319 320 320 319 317 316 316 316 316 314 314 313 312 313 312 312 311 310 309 308 307 306 304 302 301 300 301 301 301 301 298 295 292 290 289 288
306 307 308 309 309 312 314 315 316 317 316 314 313 314 314 315 314 315 317 316 316 314 312 312 311 311 311 310 309 306 304 303 302 302 302 302 302 301 297 295 292 290 289
303 304 306 307 308 310 312 312 312 313 313 312 312 313 313 313 315 314 315 317 317 315 315 314 313 312 311 311 309 306 305 304 303 303 303 303 303 303 301 299 296 294 293
300 301 303 304 305 306 307 308 309 311 311 311 312 312 312 313 315 316 317 318 317 316 315 314 313 313 312 310 309 308 307 306 306 306 306 306 305 304 303 302 300 299 298
296 298 300 301 303 304 304 305 305 307 308 309 311 311 312 313 314 316 316 316 315 313 312 313 313 313 313 311 310 310 310 309 309 309 308 308 307 305 305 303 303 303 302
294 296 297 299 301 302 303 304 304 305 306 307 308 309 310 312 313 313 313 313 312 311 312 311 311 312 311 311 311 310 310 310 310 309 309 308 308 307 306 305 305 305 303
291 293 295 297 299 301 301 302 303 303 304 305 305 306 306 308 310 312 312 311 310 310 311 311 311 312 311 311 311 311 311 311 311 311 311 310 310 309 308 307 307 307 306
289 291 293 295 297 299 300 301 301 301 302 303 304 304 305 306 308 309 310 310 310 310 311 311 311 311 312 312 313 313 312 311 311 312 311 311 311 311 311 311 311 310 309
288 289 291 293 296 298 298 299 300 301 301 302 303 303 304 305 306 307 308 309 309 309 309 309 310 311 311 312 312 313 312 312 312 313 313 312 312 313 313 314 313 313 311
285 288 290 292 295 296 296 297 299 298 298 299 300 301 301 302 304 304 305 306 307 307 307 308 309 310 311 311 312 313 313 313 313 313 313 313 313 314 314 314 314 313 312
284 286 288 290 292 293 294 296 297 298 298 298 297 298 299 300 302 303 303 304 305 306 307 308 308 310 310 311 312 313 312 312 313 313 313 313 313 314 313 313 313 313 312
283 285 287 289 290 291 293 294 295 295 295 295 296 296 297 299 300 302 302 303 304 305 306 307 307 308 309 310 311 311 311 311 312 313 314 313 314 314 314 313 313 313 312
283 285 286 287 288 290 292 293 294 294 294 294 296 296 297 298 299 301 302 303 303 304 305 307 308 309 310 310 310 310 311 311 312 313 314 314 313 313 313 314 314 314 313
283 285 286 286 287 289 290 292 294 293 293 293 294 296 296 297 297 299 300 301 303 304 305 307 308 310 311 310 310 310 311 312 313 314 314 314 314 314 314 314 314 314 314
282 284 284 284 285 287 289 292 293 292 292 292 293 294 296 297 298 300 301 303 303 304 305 306 309 310 310 310 309 310 311 312 313 314 314 314 314 314 315 315 314 314 314
281 281 281 282 284 285 287 289 290 291 292 293 293 295 297 299 300 302 303 304 304 305 305 307 308 309 309 310 310 310 311 311 312 313 314 315 314 314 314 314 313 313 313
278 278 279 281 284 286 287 288 289 290 291 293 294 296 297 299 301 301 303 304 305 305 306 307 308 308 309 309 309 309 310 311 312 313 313 314 314 313 313 313 313 312 311
Height
5898 5896 5895 5893 5892 5890 5889 5888 5887 5886 5885 5884 5883 5882 5881 5880 5879 5878 5876 5875 5873 5872 5870 5868 5867 5865 5864 5862 5861 5859 5858 5857 5856 5854 5852 5851 5849 5848 5847 5845 5844 5842 5841
5897 5895 5893 5892 5890 5889 5887 5886 5885 5883 5882 5881 5880 5879 5878 5877 5875 5874 5872 5871 5869 5867 5866 5864 5862 5860 5858 5856 5855 5853 5852 5850 5849 5848 5846 5844 5843 5842 5840 5839 5837 5836 5834
5896 5894 5892 5890 5888 5887 5885 5884 5883 5882 5880 5879 5878 5876 5875 5873 5872 5870 5868 5866 5865 5863 5861 5859 5857 5855 5853 5851 5849 5848 5846 5844 5843 5841 5840 5838 5836 5834 5833 5831 5830 5828 5826
5894 5892 5890 5888 5887 5885 5883 5882 5881 5879 5878 5876 5875 5873 5871 5870 5868 5866 5864 5862 5860 5858 5855 5853 5851 5849 5847 5845 5843 5841 5840 5838 5836 5835 5833 5831 5829 5827 5825 5823 5822 5820 5818
5892 5890 5888 5886 5885 5883 5882 5880 5878 5877 5875 5873 5871 5870 5868 5866 5864 5862 5859 5857 5855 5852 5850 5848 5846 5844 5842 5840 5837 5835 5834 5832 5830 5827 5825 5823 5821 5819 5817 5815 5814 5812 5810
5890 5889 5887 5885 5883 5881 5879 5878 5876 5874 5872 5870 5868 5866 5864 5862 5860 5857 5855 5852 5850 5847 5845 5843 5841 5838 5836 5833 5831 5829 5827 5825 5823 5820 5818 5816 5813 5811 5809 5807 5805 5803 5801
5888 5887 5885 5883 5881 5879 5877 5875 5873 5871 5869 5867 5865 5863 5860 5858 5855 5853 5850 5848 5845 5843 5840 5838 5835 5833 5830 5828 5825 5823 5820 5818 5816 5813 5811 5808 5805 5802 5800 5798 5796 5794 5792
5886 5884 5882 5880 5878 5876 5874 5872 5870 5867 5865 5863 5861 5859 5857 5854 5851 5849 5846 5843 5840 5838 5835 5832 5830 5827 5824 5822 5819 5817 5814 5812 5809 5806 5803 5800 5797 5794 5792 5790 5787 5785 5783
5882 5881 5879 5877 5875 5873 5871 5869 5866 5864 5862 5859 5857 5855 5853 5850 5847 5845 5842 5839 5836 5833 5830 5827 5824 5822 5819 5816 5814 5811 5808 5805 5802 5799 5796 5793 5790 5787 5784 5781 5779 5777 5774
5879 5877 5875 5873 5871 5869 5867 5865 5863 5861 5858 5856 5853 5851 5848 5846 5843 5840 5837 5834 5831 5828 5825 5822 5819 5816 5813 5810 5808 5805 5802 5799 5796 5793 5790 5787 5783 5780 5776 5774 5771 5768 5765
5875 5873 5871 5869 5868 5866 5864 5861 5859 5857 5854 5852 5850 5847 5844 5841 5839 5836 5833 5830 5826 5823 5820 5817 5814 5811 5808 5805 5802 5799 5796 5793 5790 5787 5783 5780 5776 5772 5769 5766 5762 5759 5756
5871 5869 5867 5865 5863 5861 5859 5857 5855 5853 5850 5848 5845 5843 5840 5837 5834 5831 5828 5825 5822 5818 5815 5812 5808 5805 5802 5799 5796 5793 5790 5787 5783 5780 5776 5773 5769 5765 5761 5757 5754 5750 5747
5866 5864 5862 5860 5859 5857 5855 5853 5850 5848 5846 5843 5841 5838 5835 5832 5829 5826 5823 5820 5816 5813 5810 5807 5803 5800 5797 5794 5790 5787 5784 5780 5777 5773 5769 5765 5761 5757 5753 5749 5745 5741 5737
5860 5859 5857 5855 5854 5852 5850 5848 5846 5843 5841 5838 5835 5833 5830 5827 5824 5821 5818 5815 5811 5808 5805 5801 5798 5795 5791 5788 5784 5781 5777 5773 5770 5766 5762 5757 5753 5749 5745 5741 5737 5733 5729
5855 5853 5852 5850 5848 5846 5844 5842 5840 5838 5835 5833 5830 5828 5825 5822 5819 5816 5813 5809 5806 5803 5799 5796 5792 5789 5785 5782 5778 5774 5770 5766 5762 5758 5754 5750 5746 5741 5737 5733 5729 5725 5721
5849 5848 5846 5844 5842 5841 5839 5837 5834 5832 5830 5827 5825 5822 5819 5816 5813 5810 5807 5804 5800 5797 5793 5790 5786 5783 5779 5776 5772 5768 5763 5759 5755 5751 5747 5742 5738 5734 5730 5726 5721 5717 5713
5842 5841 5840 5838 5836 5834 5832 5830 5828 5826 5823 5821 5818 5816 5813 5810 5807 5804 5801 5797 5794 5791 5787 5784 5780 5777 5773 5769 5765 5761 5756 5752 5748 5744 5740 5735 5731 5727 5722 5718 5714 5710 5705
5835 5834 5833 5832 5830 5828 5826 5824 5822 5819 5817 5815 5812 5809 5807 5804 5801 5798 5794 5791 5788 5784 5781 5777 5774 5770 5766 5762 5758 5754 5749 5745 5741 5737 5733 5728 5724 5720 5715 5711 5707 5703 5699
5829 5827 5826 5825 5823 5821 5819 5817 5815 5813 5810 5808 5805 5803 5800 5797 5794 5791 5788 5785 5781 5778 5774 5771 5767 5763 5759 5755 5751 5747 5743 5738 5734 5730 5726 5722 5717 5713 5709 5704 5700 5696 5692
5821 5820 5819 5817 5815 5814 5812 5810 5808 5805 5803 5801 5798 5796 5793 5790 5787 5784 5781 5778 5775 5771 5768 5764 5760 5757 5753 5748 5744 5740 5736 5732 5727 5723 5719 5715 5710 5706 5702 5698 5694 5690 5686
5813 5812 5811 5810 5808 5806 5804 5802 5800 5798 5796 5793 5791 5788 5786 5783 5780 5777 5774 5771 5768 5764 5761 5757 5753 5749 5745 5741 5737 5733 5729 5725 5720 5716 5712 5708 5704 5700 5696 5691 5687 5683 5680
5805 5804 5803 5802 5800 5798 5796 5794 5792 5790 5788 5786 5784 5781 5778 5775 5773 5770 5767 5764 5760 5757 5753 5750 5746 5742 5738 5734 5730 5726 5722 5718 5714 5709 5705 5701 5697 5693 5689 5685 5681 5677 5673
5797 5796 5795 5793 5792 5790 5788 5787 5785 5783 5780 5778 5776 5773 5771 5768 5765 5762 5759 5756 5753 5749 5746 5742 5739 5735 5730 5726 5722 5719 5715 5711 5707 5703 5699 5694 5691 5687 5683 5679 5675 5671 5668
5788 5787 5786 5785 5784 5783 5781 5779 5777 5775 5773 5771 5769 5766 5764 5761 5758 5755 5752 5749 5746 5742 5738 5735 5731 5727 5723 5719 5715 5711 5707 5704 5700 5696 5692 5688 5684 5680 5677 5673 5669 5665 5662
5780 5779 5778 5777 5776 5775 5773 5772 5770 5768 5766 5763 5761 5759 5756 5754 5751 5748 5745 5742 5738 5735 5731 5727 5724 5720 5716 5712 5708 5704 5700 5696 5693 5689 5685 5682 5678 5674 5671 5667 5663 5660 5656
5772 5771 5770 5769 5768 5767 5766 5764 5762 5760 5758 5756 5754 5752 5749 5747 5744 5741 5738 5735 5731 5727 5724 5720 5716 5712 5708 5705 5701 5697 5694 5690 5686 5683 5679 5675 5672 5668 5664 5661 5657 5654 5651